Time,TemperatureF,DewpointF,PressureIn,WindDirection,WindDirectionDegrees,WindSpeedMPH,WindSpeedGustMPH,Humidity,HourlyPrecipIn,Conditions,Clouds,dailyrainin,SoftwareType,DateUTC
2013-09-04 00:00:00,65.8,-99.9,29.94,ENE,71,0.0,0.0,-999,-99.99,,,-99.99,,2013-09-04 07:00:00,
2013-09-04 00:05:00,65.6,-99.9,29.94,ENE,71,0.0,0.0,-999,-99.99,,,-99.99,,2013-09-04 07:05:00,
2013-09-04 00:10:00,65.7,-99.9,29.94,ENE,71,0.0,0.0,-999,-99.99,,,-99.99,,2013-09-04 07:10:00,
2013-09-04 00:15:00,65.4,-99.9,29.93,ENE,71,0.0,0.0,-999,-99.99,,,-99.99,,2013-09-04 07:15:00,
2013-09-04 00:20:00,65.5,-99.9,29.93,ENE,71,0.0,0.0,-999,-99.99,,,-99.99,,2013-09-04 07:20:00,
2013-09-04 00:25:00,65.6,-99.9,29.94,ENE,71,0.0,0.0,-999,-99.99,,,-99.99,,2013-09-04 07:25:00,
2013-09-04 00:30:00,65.2,-99.9,29.94,ENE,71,0.0,0.0,-999,-99.99,,,-99.99,,2013-09-04 07:30:00,
2013-09-04 00:35:00,65.0,-99.9,29.94,ESE,108,0.0,0.0,-999,-99.99,,,-99.99,,2013-09-04 07:35:00,
2013-09-04 00:40:00,65.3,-99.9,29.94,ESE,108,0.0,0.0,-999,-99.99,,,-99.99,,2013-09-04 07:40:00,
2013-09-04 00:45:00,65.1,-99.9,29.94,ESE,108,0.0,0.0,-999,-99.99,,,-99.99,,2013-09-04 07:45:00,
2013-09-04 00:50:00,65.0,-99.9,29.94,SE,134,0.0,0.0,-999,-99.99,,,-99.99,,2013-09-04 07:50:00,
2013-09-04 00:55:00,64.9,-99.9,29.94,East,94,0.0,8.9,-999,-99.99,,,-99.99,,2013-09-04 07:55:00,
2013-09-04 01:00:00,64.9,-99.9,29.94,East,87,0.0,0.0,-999,-99.99,,,-99.99,,2013-09-04 08:00:00,
2013-09-04 01:05:00,65.0,-99.9,29.94,SE,129,0.0,0.0,-999,-99.99,,,-99.99,,2013-09-04 08:05:00,
2013-09-04 01:10:00,64.8,-99.9,29.94,SE,129,0.0,0.0,-999,-99.99,,,-99.99,,2013-09-04 08:10:00,
2013-09-04 01:15:00,64.7,-99.9,29.94,SE,129,0.0,0.0,-999,-99.99,,,-99.99,,2013-09-04 08:15:00,
2013-09-04 01:20:00,64.7,-99.9,29.94,SE,129,0.0,0.0,-999,-99.99,,,-99.99,,2013-09-04 08:20:00,
2013-09-04 01:25:00,64.6,-99.9,29.94,SE,129,0.0,0.0,-999,-99.99,,,-99.99,,2013-09-04 08:25:00,
2013-09-04 01:30:00,64.7,-99.9,29.94,SE,129,0.0,0.0,-999,-99.99,,,-99.99,,2013-09-04 08:30:00,
2013-09-04 01:35:00,64.8,-99.9,29.94,SE,129,0.0,0.0,-999,-99.99,,,-99.99,,2013-09-04 08:35:00,
2013-09-04 01:40:00,64.6,-99.9,29.94,SE,129,0.0,0.0,-999,-99.99,,,-99.99,,2013-09-04 08:40:00,
2013-09-04 01:50:00,64.3,-99.9,29.94,SE,129,0.0,0.0,-999,-99.99,,,-99.99,,2013-09-04 08:50:00,
2013-09-04 02:00:00,64.2,-99.9,29.94,SE,129,0.0,0.0,-999,-99.99,,,-99.99,,2013-09-04 09:00:00,
2013-09-04 02:05:00,64.4,-99.9,29.94,SE,129,0.0,0.0,-999,-99.99,,,-99.99,,2013-09-04 09:05:00,
2013-09-04 02:10:00,64.3,-99.9,29.94,SE,129,0.0,0.0,-999,-99.99,,,-99.99,,2013-09-04 09:10:00,
2013-09-04 02:15:00,64.4,-99.9,29.94,SE,129,0.0,0.0,-999,-99.99,,,-99.99,,2013-09-04 09:15:00,
2013-09-04 02:20:00,64.1,-99.9,29.94,SE,129,0.0,0.0,-999,-99.99,,,-99.99,,2013-09-04 09:20:00,
2013-09-04 02:25:00,64.0,-99.9,29.94,SE,129,0.0,0.0,-999,-99.99,,,-99.99,,2013-09-04 09:25:00,
2013-09-04 02:30:00,63.9,-99.9,29.94,ESE,105,0.0,14.2,-999,-99.99,,,-99.99,,2013-09-04 09:30:00,
2013-09-04 02:35:00,63.9,-99.9,29.94,ENE,77,0.0,0.0,-999,-99.99,,,-99.99,,2013-09-04 09:35:00,
2013-09-04 02:40:00,63.9,-99.9,29.94,ENE,77,0.0,0.0,-999,-99.99,,,-99.99,,2013-09-04 09:40:00,
2013-09-04 02:45:00,63.8,-99.9,29.94,ENE,77,0.0,0.0,-999,-99.99,,,-99.99,,2013-09-04 09:45:00,
2013-09-04 02:50:00,63.7,-99.9,29.94,ENE,77,0.0,0.0,-999,-99.99,,,-99.99,,2013-09-04 09:50:00,
2013-09-04 02:55:00,63.7,-99.9,29.94,ESE,105,0.0,14.3,-999,-99.99,,,-99.99,,2013-09-04 09:55:00,
2013-09-04 03:00:00,63.7,-99.9,29.94,SE,136,0.0,0.0,-999,-99.99,,,-99.99,,2013-09-04 10:00:00,
2013-09-04 03:05:00,63.8,-99.9,29.94,SE,136,0.0,0.0,-999,-99.99,,,-99.99,,2013-09-04 10:05:00,
2013-09-04 03:10:00,63.7,-99.9,29.94,SE,142,0.0,8.0,-999,-99.99,,,-99.99,,2013-09-04 10:10:00,
2013-09-04 03:20:00,63.5,-99.9,29.94,ESE,122,0.0,8.5,-999,-99.99,,,-99.99,,2013-09-04 10:20:00,
2013-09-04 03:25:00,63.4,-99.9,29.94,ESE,122,0.0,0.0,-999,-99.99,,,-99.99,,2013-09-04 10:25:00,
2013-09-04 03:30:00,63.5,-99.9,29.94,ESE,105,0.0,9.0,-999,-99.99,,,-99.99,,2013-09-04 10:30:00,
2013-09-04 03:35:00,63.7,-99.9,29.94,ESE,105,0.0,0.0,-999,-99.99,,,-99.99,,2013-09-04 10:35:00,
2013-09-04 03:40:00,63.4,-99.9,29.94,ESE,105,0.0,0.0,-999,-99.99,,,-99.99,,2013-09-04 10:40:00,
2013-09-04 03:45:00,63.3,-99.9,29.95,ESE,105,0.0,0.0,-999,-99.99,,,-99.99,,2013-09-04 10:45:00,
2013-09-04 03:50:00,63.2,-99.9,29.95,ESE,105,0.0,0.0,-999,-99.99,,,-99.99,,2013-09-04 10:50:00,
2013-09-04 03:55:00,62.9,-99.9,29.95,SSE,167,0.0,0.0,-999,-99.99,,,-99.99,,2013-09-04 10:55:00,
2013-09-04 04:00:00,62.8,-99.9,29.94,SSE,167,0.0,0.0,-999,-99.99,,,-99.99,,2013-09-04 11:00:00,
2013-09-04 04:05:00,62.6,-99.9,29.94,SSE,167,0.0,0.0,-999,-99.99,,,-99.99,,2013-09-04 11:05:00,
2013-09-04 04:10:00,62.9,-99.9,29.94,SSE,167,0.0,0.0,-999,-99.99,,,-99.99,,2013-09-04 11:10:00,
2013-09-04 04:15:00,62.9,-99.9,29.94,SSE,167,0.0,0.0,-999,-99.99,,,-99.99,,2013-09-04 11:15:00,
2013-09-04 04:20:00,63.0,-99.9,29.94,SSE,167,0.0,0.0,-999,-99.99,,,-99.99,,2013-09-04 11:20:00,
2013-09-04 04:25:00,62.8,-99.9,29.94,SSE,167,0.0,0.0,-999,-99.99,,,-99.99,,2013-09-04 11:25:00,
2013-09-04 04:30:00,62.7,-99.9,29.94,SSE,167,0.0,0.0,-999,-99.99,,,-99.99,,2013-09-04 11:30:00,
2013-09-04 04:35:00,62.5,-99.9,29.94,SSE,167,0.0,0.0,-999,-99.99,,,-99.99,,2013-09-04 11:35:00,
2013-09-04 04:40:00,62.8,-99.9,29.94,SSE,167,0.0,0.0,-999,-99.99,,,-99.99,,2013-09-04 11:40:00,
2013-09-04 04:45:00,62.8,-99.9,29.94,SSE,167,0.0,0.0,-999,-99.99,,,-99.99,,2013-09-04 11:45:00,
2013-09-04 04:50:00,62.2,-99.9,29.94,SSE,167,0.0,0.0,-999,-99.99,,,-99.99,,2013-09-04 11:50:00,
2013-09-04 04:55:00,62.3,-99.9,29.93,SSE,167,0.0,0.0,-999,-99.99,,,-99.99,,2013-09-04 11:55:00,
2013-09-04 05:00:00,62.4,-99.9,29.94,SSE,167,0.0,0.0,-999,-99.99,,,-99.99,,2013-09-04 12:00:00,
2013-09-04 05:05:00,62.1,-99.9,29.94,SSE,167,0.0,0.0,-999,-99.99,,,-99.99,,2013-09-04 12:05:00,
2013-09-04 05:10:00,62.3,-99.9,29.94,SSE,167,0.0,0.0,-999,-99.99,,,-99.99,,2013-09-04 12:10:00,
2013-09-04 05:15:00,62.2,-99.9,29.94,SSE,167,0.0,0.0,-999,-99.99,,,-99.99,,2013-09-04 12:15:00,
2013-09-04 05:20:00,62.1,-99.9,29.94,SSE,167,0.0,0.0,-999,-99.99,,,-99.99,,2013-09-04 12:20:00,
2013-09-04 05:25:00,62.3,-99.9,29.94,SSE,167,0.0,0.0,-999,-99.99,,,-99.99,,2013-09-04 12:25:00,
2013-09-04 05:30:00,62.3,-99.9,29.94,SSE,167,0.0,0.0,-999,-99.99,,,-99.99,,2013-09-04 12:30:00,
2013-09-04 05:35:00,62.3,-99.9,29.94,SSE,167,0.0,0.0,-999,-99.99,,,-99.99,,2013-09-04 12:35:00,
2013-09-04 05:40:00,62.3,-99.9,29.94,SSE,167,0.0,0.0,-999,-99.99,,,-99.99,,2013-09-04 12:40:00,
2013-09-04 05:45:00,62.3,-99.9,29.94,SSE,167,0.0,0.0,-999,-99.99,,,-99.99,,2013-09-04 12:45:00,
2013-09-04 05:50:00,62.0,-99.9,29.94,SSE,167,0.0,0.0,-999,-99.99,,,-99.99,,2013-09-04 12:50:00,
2013-09-04 05:55:00,62.0,-99.9,29.94,SSE,167,0.0,0.0,-999,-99.99,,,-99.99,,2013-09-04 12:55:00,
2013-09-04 06:00:00,62.3,-99.9,29.94,SSE,167,0.0,0.0,-999,-99.99,,,-99.99,,2013-09-04 13:00:00,
2013-09-04 06:05:00,62.2,-99.9,29.94,SSE,167,0.0,0.0,-999,-99.99,,,-99.99,,2013-09-04 13:05:00,
2013-09-04 06:10:00,62.3,-99.9,29.94,SSE,167,0.0,0.0,-999,-99.99,,,-99.99,,2013-09-04 13:10:00,
2013-09-04 06:15:00,62.2,-99.9,29.94,SSE,167,0.0,0.0,-999,-99.99,,,-99.99,,2013-09-04 13:15:00,
2013-09-04 06:20:00,62.1,-99.9,29.94,SSE,167,0.0,0.0,-999,-99.99,,,-99.99,,2013-09-04 13:20:00,
2013-09-04 06:25:00,62.2,-99.9,29.95,SSE,167,0.0,0.0,-999,-99.99,,,-99.99,,2013-09-04 13:25:00,
2013-09-04 06:30:00,62.2,-99.9,29.95,SSE,167,0.0,0.0,-999,-99.99,,,-99.99,,2013-09-04 13:30:00,
2013-09-04 06:35:00,62.4,-99.9,29.95,SSE,167,0.0,0.0,-999,-99.99,,,-99.99,,2013-09-04 13:35:00,
2013-09-04 06:40:00,62.3,-99.9,29.95,SSE,167,0.0,0.0,-999,-99.99,,,-99.99,,2013-09-04 13:40:00,
2013-09-04 06:45:00,62.1,-99.9,29.95,SSE,167,0.0,0.0,-999,-99.99,,,-99.99,,2013-09-04 13:45:00,
2013-09-04 06:55:00,61.7,-99.9,29.95,SSE,167,0.0,0.0,-999,-99.99,,,-99.99,,2013-09-04 13:55:00,
2013-09-04 07:05:00,61.6,-99.9,29.95,SSE,167,0.0,0.0,-999,-99.99,,,-99.99,,2013-09-04 14:05:00,
2013-09-04 07:10:00,61.8,-99.9,29.95,SSE,167,0.0,0.0,-999,-99.99,,,-99.99,,2013-09-04 14:10:00,
2013-09-04 07:15:00,61.9,-99.9,29.96,SSE,167,0.0,0.0,-999,-99.99,,,-99.99,,2013-09-04 14:15:00,
2013-09-04 07:20:00,61.9,-99.9,29.96,SSE,167,0.0,0.0,-999,-99.99,,,-99.99,,2013-09-04 14:20:00,
2013-09-04 07:25:00,62.0,-99.9,29.96,SSE,167,0.0,0.0,-999,-99.99,,,-99.99,,2013-09-04 14:25:00,
2013-09-04 07:30:00,62.0,-99.9,29.96,SSE,167,0.0,0.0,-999,-99.99,,,-99.99,,2013-09-04 14:30:00,
2013-09-04 07:35:00,62.1,-99.9,29.96,SSE,167,0.0,0.0,-999,-99.99,,,-99.99,,2013-09-04 14:35:00,
2013-09-04 07:40:00,61.9,-99.9,29.96,SSE,167,0.0,0.0,-999,-99.99,,,-99.99,,2013-09-04 14:40:00,
2013-09-04 07:45:00,62.0,-99.9,29.96,SSE,167,0.0,0.0,-999,-99.99,,,-99.99,,2013-09-04 14:45:00,
2013-09-04 07:50:00,62.2,-99.9,29.96,SSE,167,0.0,0.0,-999,-99.99,,,-99.99,,2013-09-04 14:50:00,
2013-09-04 07:55:00,62.2,-99.9,29.97,SSE,167,0.0,0.0,-999,-99.99,,,-99.99,,2013-09-04 14:55:00,
2013-09-04 08:00:00,62.1,-99.9,29.97,SSE,167,0.0,0.0,-999,-99.99,,,-99.99,,2013-09-04 15:00:00,
2013-09-04 08:05:00,62.3,-99.9,29.97,SSE,167,0.0,0.0,-999,-99.99,,,-99.99,,2013-09-04 15:05:00,
2013-09-04 08:10:00,62.1,-99.9,29.97,SSE,167,0.0,0.0,-999,-99.99,,,-99.99,,2013-09-04 15:10:00,
2013-09-04 08:15:00,62.1,-99.9,29.97,SSE,167,0.0,0.0,-999,-99.99,,,-99.99,,2013-09-04 15:15:00,
2013-09-04 08:20:00,62.1,-99.9,29.97,SSE,167,0.0,0.0,-999,-99.99,,,-99.99,,2013-09-04 15:20:00,
2013-09-04 08:25:00,62.3,-99.9,29.97,SSE,167,0.0,0.0,-999,-99.99,,,-99.99,,2013-09-04 15:25:00,
2013-09-04 08:30:00,62.3,-99.9,29.97,SSE,167,0.0,0.0,-999,-99.99,,,-99.99,,2013-09-04 15:30:00,
2013-09-04 08:35:00,62.4,-99.9,29.97,SSE,167,0.0,0.0,-999,-99.99,,,-99.99,,2013-09-04 15:35:00,
2013-09-04 08:40:00,62.4,-99.9,29.97,SSE,167,0.0,0.0,-999,-99.99,,,-99.99,,2013-09-04 15:40:00,
2013-09-04 08:45:00,62.4,-99.9,29.98,SSE,167,0.0,0.0,-999,-99.99,,,-99.99,,2013-09-04 15:45:00,
2013-09-04 08:50:00,62.5,-99.9,29.98,SSE,167,0.0,0.0,-999,-99.99,,,-99.99,,2013-09-04 15:50:00,
2013-09-04 08:55:00,62.6,-99.9,29.98,SSE,167,0.0,0.0,-999,-99.99,,,-99.99,,2013-09-04 15:55:00,
2013-09-04 09:00:00,62.7,-99.9,29.98,SSE,167,0.0,0.0,-999,-99.99,,,-99.99,,2013-09-04 16:00:00,
2013-09-04 09:05:00,62.8,-99.9,29.98,SSE,167,0.0,0.0,-999,-99.99,,,-99.99,,2013-09-04 16:05:00,
2013-09-04 09:10:00,62.9,-99.9,29.98,SSE,167,0.0,0.0,-999,-99.99,,,-99.99,,2013-09-04 16:10:00,
2013-09-04 09:15:00,63.0,-99.9,29.98,SSE,167,0.0,0.0,-999,-99.99,,,-99.99,,2013-09-04 16:15:00,
2013-09-04 09:20:00,63.0,-99.9,29.99,SSE,167,0.0,0.0,-999,-99.99,,,-99.99,,2013-09-04 16:20:00,
2013-09-04 09:25:00,63.1,-99.9,29.99,SSE,167,0.0,0.0,-999,-99.99,,,-99.99,,2013-09-04 16:25:00,
2013-09-04 09:30:00,63.2,-99.9,29.99,SSE,167,0.0,0.0,-999,-99.99,,,-99.99,,2013-09-04 16:30:00,
2013-09-04 09:35:00,63.3,-99.9,29.99,SSE,167,0.0,0.0,-999,-99.99,,,-99.99,,2013-09-04 16:35:00,
2013-09-04 09:40:00,63.5,-99.9,29.99,SSE,167,0.0,0.0,-999,-99.99,,,-99.99,,2013-09-04 16:40:00,
2013-09-04 09:45:00,63.6,-99.9,29.99,SSE,167,0.0,0.0,-999,-99.99,,,-99.99,,2013-09-04 16:45:00,
2013-09-04 09:50:00,63.6,-99.9,29.99,SSE,167,0.0,0.0,-999,-99.99,,,-99.99,,2013-09-04 16:50:00,
2013-09-04 10:00:00,63.9,-99.9,29.99,SSE,167,0.0,0.0,-999,-99.99,,,-99.99,,2013-09-04 17:00:00,
2013-09-04 10:05:00,64.1,-99.9,29.99,SSE,167,0.0,0.0,-999,-99.99,,,-99.99,,2013-09-04 17:05:00,
2013-09-04 10:10:00,64.1,-99.9,29.99,SSE,167,0.0,0.0,-999,-99.99,,,-99.99,,2013-09-04 17:10:00,
2013-09-04 10:15:00,64.6,-99.9,29.99,SSE,167,0.0,0.0,-999,-99.99,,,-99.99,,2013-09-04 17:15:00,
2013-09-04 10:20:00,64.6,-99.9,29.99,SSE,167,0.0,0.0,-999,-99.99,,,-99.99,,2013-09-04 17:20:00,
2013-09-04 10:25:00,64.7,-99.9,29.99,SSE,167,0.0,0.0,-999,-99.99,,,-99.99,,2013-09-04 17:25:00,
2013-09-04 10:30:00,64.8,-99.9,30.00,SSE,167,0.0,0.0,-999,-99.99,,,-99.99,,2013-09-04 17:30:00,
2013-09-04 10:35:00,65.0,-99.9,30.00,SSE,167,0.0,0.0,-999,-99.99,,,-99.99,,2013-09-04 17:35:00,
2013-09-04 10:40:00,65.0,-99.9,30.00,SSE,167,0.0,0.0,-999,-99.99,,,-99.99,,2013-09-04 17:40:00,
2013-09-04 10:45:00,65.1,-99.9,29.99,SSE,167,0.0,0.0,-999,-99.99,,,-99.99,,2013-09-04 17:45:00,
2013-09-04 10:50:00,65.3,-99.9,30.00,SE,132,0.0,0.0,-999,-99.99,,,-99.99,,2013-09-04 17:50:00,
2013-09-04 10:55:00,65.4,-99.9,30.00,SE,132,0.0,0.0,-999,-99.99,,,-99.99,,2013-09-04 17:55:00,
2013-09-04 11:00:00,65.7,-99.9,30.00,NW,310,5.8,8.4,-999,-99.99,,,-99.99,,2013-09-04 18:00:00,
2013-09-04 11:05:00,65.8,-99.9,29.99,SSW,208,0.0,11.3,-999,-99.99,,,-99.99,,2013-09-04 18:05:00,
2013-09-04 11:10:00,65.9,-99.9,29.99,SSW,208,0.0,0.0,-999,-99.99,,,-99.99,,2013-09-04 18:10:00,
2013-09-04 11:15:00,66.0,-99.9,29.99,SW,225,0.0,0.0,-999,-99.99,,,-99.99,,2013-09-04 18:15:00,
2013-09-04 11:20:00,66.2,-99.9,29.99,West,268,8.5,10.9,-999,-99.99,,,-99.99,,2013-09-04 18:20:00,
2013-09-04 11:25:00,66.5,-99.9,29.99,WSW,238,0.0,0.0,-999,-99.99,,,-99.99,,2013-09-04 18:25:00,
2013-09-04 11:30:00,66.8,-99.9,29.99,North,11,0.0,0.0,-999,-99.99,,,-99.99,,2013-09-04 18:30:00,
2013-09-04 11:35:00,66.8,-99.9,29.99,SW,217,0.0,0.0,-999,-99.99,,,-99.99,,2013-09-04 18:35:00,
2013-09-04 11:40:00,67.1,-99.9,29.99,SW,230,0.0,11.3,-999,-99.99,,,-99.99,,2013-09-04 18:40:00,
2013-09-04 11:45:00,67.3,-99.9,29.99,WSW,256,0.0,9.0,-999,-99.99,,,-99.99,,2013-09-04 18:45:00,
2013-09-04 11:50:00,67.2,-99.9,29.99,SSW,194,0.0,9.0,-999,-99.99,,,-99.99,,2013-09-04 18:50:00,
2013-09-04 11:55:00,67.4,-99.9,29.99,SSW,194,0.0,0.0,-999,-99.99,,,-99.99,,2013-09-04 18:55:00,
2013-09-04 12:00:00,67.8,-99.9,29.99,North,359,0.0,8.9,-999,-99.99,,,-99.99,,2013-09-04 19:00:00,
2013-09-04 12:05:00,67.7,-99.9,29.99,West,259,0.0,0.0,-999,-99.99,,,-99.99,,2013-09-04 19:05:00,
2013-09-04 12:10:00,67.8,-99.9,29.99,West,259,0.0,0.0,-999,-99.99,,,-99.99,,2013-09-04 19:10:00,
2013-09-04 12:15:00,68.4,-99.9,29.98,NW,316,0.0,11.1,-999,-99.99,,,-99.99,,2013-09-04 19:15:00,
2013-09-04 12:20:00,68.2,-99.9,29.98,SW,224,0.0,6.0,-999,-99.99,,,-99.99,,2013-09-04 19:20:00,
2013-09-04 12:30:00,68.4,-99.9,29.98,WNW,286,0.0,0.0,-999,-99.99,,,-99.99,,2013-09-04 19:30:00,
2013-09-04 12:35:00,68.4,-99.9,29.98,WNW,290,0.0,0.0,-999,-99.99,,,-99.99,,2013-09-04 19:35:00,
2013-09-04 12:40:00,68.8,-99.9,29.98,WSW,241,0.0,17.7,-999,-99.99,,,-99.99,,2013-09-04 19:40:00,
2013-09-04 12:45:00,68.4,-99.9,29.98,WNW,283,0.0,0.0,-999,-99.99,,,-99.99,,2013-09-04 19:45:00,
2013-09-04 12:50:00,69.2,-99.9,29.98,NW,307,0.0,8.7,-999,-99.99,,,-99.99,,2013-09-04 19:50:00,
2013-09-04 12:55:00,68.8,-99.9,29.98,NW,307,0.0,0.0,-999,-99.99,,,-99.99,,2013-09-04 19:55:00,
2013-09-04 13:00:00,69.3,-99.9,29.98,WNW,292,8.4,13.8,-999,-99.99,,,-99.99,,2013-09-04 20:00:00,
2013-09-04 13:05:00,69.6,-99.9,29.98,WSW,237,7.9,13.8,-999,-99.99,,,-99.99,,2013-09-04 20:05:00,
2013-09-04 13:10:00,69.6,-99.9,29.98,North,359,13.2,13.2,-999,-99.99,,,-99.99,,2013-09-04 20:10:00,
2013-09-04 13:15:00,69.6,-99.9,29.98,WNW,289,0.0,0.0,-999,-99.99,,,-99.99,,2013-09-04 20:15:00,
2013-09-04 13:20:00,69.7,-99.9,29.98,WSW,252,4.5,4.5,-999,-99.99,,,-99.99,,2013-09-04 20:20:00,
2013-09-04 13:25:00,70.0,-99.9,29.98,West,273,0.0,8.9,-999,-99.99,,,-99.99,,2013-09-04 20:25:00,
2013-09-04 13:30:00,70.6,-99.9,29.98,WNW,290,12.7,16.6,-999,-99.99,,,-99.99,,2013-09-04 20:30:00,
2013-09-04 13:35:00,70.4,-99.9,29.97,West,265,0.0,0.0,-999,-99.99,,,-99.99,,2013-09-04 20:35:00,
2013-09-04 13:40:00,70.7,-99.9,29.98,WSW,248,6.0,19.2,-999,-99.99,,,-99.99,,2013-09-04 20:40:00,
2013-09-04 13:45:00,70.4,-99.9,29.97,WSW,237,0.0,0.0,-999,-99.99,,,-99.99,,2013-09-04 20:45:00,
2013-09-04 13:50:00,70.6,-99.9,29.97,SSW,193,0.0,0.0,-999,-99.99,,,-99.99,,2013-09-04 20:50:00,
2013-09-04 13:55:00,70.9,-99.9,29.97,West,259,0.0,12.7,-999,-99.99,,,-99.99,,2013-09-04 20:55:00,
2013-09-04 14:00:00,71.1,-99.9,29.97,NNW,340,0.0,11.3,-999,-99.99,,,-99.99,,2013-09-04 21:00:00,
2013-09-04 14:05:00,71.2,-99.9,29.97,West,269,6.4,8.5,-999,-99.99,,,-99.99,,2013-09-04 21:05:00,
2013-09-04 14:10:00,71.2,-99.9,29.97,WNW,292,0.0,0.0,-999,-99.99,,,-99.99,,2013-09-04 21:10:00,
2013-09-04 14:15:00,71.2,-99.9,29.97,West,279,0.0,0.0,-999,-99.99,,,-99.99,,2013-09-04 21:15:00,
2013-09-04 14:20:00,71.6,-99.9,29.97,West,268,0.0,9.0,-999,-99.99,,,-99.99,,2013-09-04 21:20:00,
2013-09-04 14:25:00,71.7,-99.9,29.97,WNW,290,0.0,0.0,-999,-99.99,,,-99.99,,2013-09-04 21:25:00,
2013-09-04 14:30:00,71.5,-99.9,29.97,SW,234,0.0,6.9,-999,-99.99,,,-99.99,,2013-09-04 21:30:00,
2013-09-04 14:35:00,71.6,-99.9,29.96,NW,309,8.4,12.4,-999,-99.99,,,-99.99,,2013-09-04 21:35:00,
2013-09-04 14:40:00,71.6,-99.9,29.96,West,279,0.0,14.3,-999,-99.99,,,-99.99,,2013-09-04 21:40:00,
2013-09-04 14:45:00,72.0,-99.9,29.96,West,271,0.0,8.9,-999,-99.99,,,-99.99,,2013-09-04 21:45:00,
2013-09-04 14:50:00,72.1,-99.9,29.96,WNW,292,0.0,0.0,-999,-99.99,,,-99.99,,2013-09-04 21:50:00,
2013-09-04 14:55:00,72.2,-99.9,29.96,WNW,295,0.0,9.0,-999,-99.99,,,-99.99,,2013-09-04 21:55:00,
2013-09-04 15:00:00,72.3,-99.9,29.96,SW,221,0.0,0.0,-999,-99.99,,,-99.99,,2013-09-04 22:00:00,
2013-09-04 15:05:00,72.3,-99.9,29.96,WNW,303,0.0,0.0,-999,-99.99,,,-99.99,,2013-09-04 22:05:00,
2013-09-04 15:10:00,72.6,-99.9,29.96,WNW,303,0.0,0.0,-999,-99.99,,,-99.99,,2013-09-04 22:10:00,
2013-09-04 15:15:00,72.6,-99.9,29.96,West,268,0.0,9.0,-999,-99.99,,,-99.99,,2013-09-04 22:15:00,
2013-09-04 15:20:00,72.8,-99.9,29.96,WSW,244,0.0,0.0,-999,-99.99,,,-99.99,,2013-09-04 22:20:00,
2013-09-04 15:25:00,72.6,-99.9,29.96,WSW,244,0.0,0.0,-999,-99.99,,,-99.99,,2013-09-04 22:25:00,
2013-09-04 15:30:00,73.1,-99.9,29.96,WSW,238,0.0,6.3,-999,-99.99,,,-99.99,,2013-09-04 22:30:00,
2013-09-04 15:35:00,73.1,-99.9,29.96,WSW,245,14.0,15.3,-999,-99.99,,,-99.99,,2013-09-04 22:35:00,
2013-09-04 15:40:00,73.2,-99.9,29.96,WSW,258,0.0,0.0,-999,-99.99,,,-99.99,,2013-09-04 22:40:00,
2013-09-04 15:45:00,73.5,-99.9,29.95,WSW,258,0.0,13.0,-999,-99.99,,,-99.99,,2013-09-04 22:45:00,
2013-09-04 15:55:00,73.6,-99.9,29.95,NW,313,0.0,8.9,-999,-99.99,,,-99.99,,2013-09-04 22:55:00,
2013-09-04 16:05:00,73.9,-99.9,29.95,SSW,199,0.0,0.0,-999,-99.99,,,-99.99,,2013-09-04 23:05:00,
2013-09-04 16:10:00,74.0,-99.9,29.95,SSW,199,0.0,0.0,-999,-99.99,,,-99.99,,2013-09-04 23:10:00,
2013-09-04 16:15:00,74.1,-99.9,29.95,West,266,11.9,15.3,-999,-99.99,,,-99.99,,2013-09-04 23:15:00,
2013-09-04 16:20:00,74.1,-99.9,29.95,SW,223,0.0,13.4,-999,-99.99,,,-99.99,,2013-09-04 23:20:00,
2013-09-04 16:25:00,74.1,-99.9,29.95,SSE,162,0.0,0.0,-999,-99.99,,,-99.99,,2013-09-04 23:25:00,
2013-09-04 16:30:00,74.3,-99.9,29.94,WSW,242,8.5,14.8,-999,-99.99,,,-99.99,,2013-09-04 23:30:00,
2013-09-04 16:35:00,74.0,-99.9,29.94,WSW,242,0.0,0.0,-999,-99.99,,,-99.99,,2013-09-04 23:35:00,
2013-09-04 16:40:00,74.4,-99.9,29.94,WSW,248,8.4,8.4,-999,-99.99,,,-99.99,,2013-09-04 23:40:00,
2013-09-04 16:45:00,74.2,-99.9,29.94,WSW,248,0.0,0.0,-999,-99.99,,,-99.99,,2013-09-04 23:45:00,
2013-09-04 16:50:00,74.5,-99.9,29.94,West,261,0.0,0.0,-999,-99.99,,,-99.99,,2013-09-04 23:50:00,
2013-09-04 16:55:00,74.5,-99.9,29.94,WSW,249,0.0,0.0,-999,-99.99,,,-99.99,,2013-09-04 23:55:00,
2013-09-04 17:00:00,74.6,-99.9,29.94,WSW,245,0.0,0.0,-999,-99.99,,,-99.99,,2013-09-05 00:00:00,
2013-09-04 17:05:00,74.7,-99.9,29.94,WSW,252,0.0,11.9,-999,-99.99,,,-99.99,,2013-09-05 00:05:00,
2013-09-04 17:10:00,74.7,-99.9,29.94,South,175,0.0,8.5,-999,-99.99,,,-99.99,,2013-09-05 00:10:00,
2013-09-04 17:15:00,74.7,-99.9,29.94,WSW,258,0.0,7.9,-999,-99.99,,,-99.99,,2013-09-05 00:15:00,
2013-09-04 17:20:00,74.7,-99.9,29.94,WSW,258,0.0,0.0,-999,-99.99,,,-99.99,,2013-09-05 00:20:00,
2013-09-04 17:25:00,74.8,-99.9,29.94,SW,235,0.0,0.0,-999,-99.99,,,-99.99,,2013-09-05 00:25:00,
2013-09-04 17:30:00,74.7,-99.9,29.94,West,278,0.0,0.0,-999,-99.99,,,-99.99,,2013-09-05 00:30:00,
2013-09-04 17:35:00,74.9,-99.9,29.94,South,191,8.0,0.0,-999,-99.99,,,-99.99,,2013-09-05 00:35:00,
2013-09-04 17:40:00,74.9,-99.9,29.94,West,268,0.0,0.0,-999,-99.99,,,-99.99,,2013-09-05 00:40:00,
2013-09-04 17:45:00,74.8,-99.9,29.94,West,265,0.0,0.0,-999,-99.99,,,-99.99,,2013-09-05 00:45:00,
2013-09-04 17:50:00,74.7,-99.9,29.93,WNW,297,0.0,0.0,-999,-99.99,,,-99.99,,2013-09-05 00:50:00,
2013-09-04 17:55:00,74.7,-99.9,29.94,West,263,0.0,12.2,-999,-99.99,,,-99.99,,2013-09-05 00:55:00,
2013-09-04 18:00:00,74.7,-99.9,29.93,West,261,0.0,0.0,-999,-99.99,,,-99.99,,2013-09-05 01:00:00,
2013-09-04 18:05:00,74.7,-99.9,29.93,West,261,0.0,0.0,-999,-99.99,,,-99.99,,2013-09-05 01:05:00,
2013-09-04 18:10:00,74.6,-99.9,29.93,WSW,247,0.0,5.1,-999,-99.99,,,-99.99,,2013-09-05 01:10:00,
2013-09-04 18:15:00,74.6,-99.9,29.93,SW,225,3.1,11.3,-999,-99.99,,,-99.99,,2013-09-05 01:15:00,
2013-09-04 18:20:00,74.6,-99.9,29.93,WNW,285,15.8,17.4,-999,-99.99,,,-99.99,,2013-09-05 01:20:00,
2013-09-04 18:25:00,74.3,-99.9,29.93,SSW,199,0.0,7.2,-999,-99.99,,,-99.99,,2013-09-05 01:25:00,
2013-09-04 18:30:00,74.3,-99.9,29.93,NW,304,7.6,12.2,-999,-99.99,,,-99.99,,2013-09-05 01:30:00,
2013-09-04 18:35:00,74.3,-99.9,29.93,WSW,249,0.0,0.0,-999,-99.99,,,-99.99,,2013-09-05 01:35:00,
2013-09-04 18:40:00,74.2,-99.9,29.93,WNW,293,8.5,12.1,-999,-99.99,,,-99.99,,2013-09-05 01:40:00,
2013-09-04 18:45:00,74.2,-99.9,29.93,WNW,295,0.0,11.3,-999,-99.99,,,-99.99,,2013-09-05 01:45:00,
2013-09-04 18:50:00,74.1,-99.9,29.93,WNW,299,7.6,7.6,-999,-99.99,,,-99.99,,2013-09-05 01:50:00,
2013-09-04 18:55:00,74.1,-99.9,29.93,WSW,249,0.0,0.0,-999,-99.99,,,-99.99,,2013-09-05 01:55:00,
2013-09-04 19:00:00,73.8,-99.9,29.93,SW,225,0.0,0.0,-999,-99.99,,,-99.99,,2013-09-05 02:00:00,
2013-09-04 19:05:00,73.5,-99.9,29.93,SSW,213,0.0,0.0,-999,-99.99,,,-99.99,,2013-09-05 02:05:00,
2013-09-04 19:10:00,73.1,-99.9,29.93,SSW,213,0.0,0.0,-999,-99.99,,,-99.99,,2013-09-05 02:10:00,
2013-09-04 19:15:00,72.8,-99.9,29.93,SSW,213,0.0,0.0,-999,-99.99,,,-99.99,,2013-09-05 02:15:00,
2013-09-04 19:20:00,72.8,-99.9,29.93,SSW,213,0.0,0.0,-999,-99.99,,,-99.99,,2013-09-05 02:20:00,
2013-09-04 19:25:00,72.4,-99.9,29.93,SSW,213,0.0,0.0,-999,-99.99,,,-99.99,,2013-09-05 02:25:00,
2013-09-04 19:30:00,72.5,-99.9,29.93,SSW,213,0.0,0.0,-999,-99.99,,,-99.99,,2013-09-05 02:30:00,
2013-09-04 19:35:00,72.3,-99.9,29.93,SSW,213,0.0,0.0,-999,-99.99,,,-99.99,,2013-09-05 02:35:00,
2013-09-04 19:40:00,72.0,-99.9,29.93,SSW,213,0.0,0.0,-999,-99.99,,,-99.99,,2013-09-05 02:40:00,
2013-09-04 19:45:00,71.7,-99.9,29.93,SSW,213,0.0,0.0,-999,-99.99,,,-99.99,,2013-09-05 02:45:00,
2013-09-04 19:50:00,71.2,-99.9,29.93,SSW,213,0.0,0.0,-999,-99.99,,,-99.99,,2013-09-05 02:50:00,
2013-09-04 19:55:00,71.3,-99.9,29.93,SSW,213,0.0,0.0,-999,-99.99,,,-99.99,,2013-09-05 02:55:00,
2013-09-04 20:00:00,71.0,-99.9,29.93,SSW,213,0.0,0.0,-999,-99.99,,,-99.99,,2013-09-05 03:00:00,
2013-09-04 20:05:00,70.9,-99.9,29.93,SSW,213,0.0,0.0,-999,-99.99,,,-99.99,,2013-09-05 03:05:00,
2013-09-04 20:10:00,70.8,-99.9,29.93,SSW,213,0.0,0.0,-999,-99.99,,,-99.99,,2013-09-05 03:10:00,
2013-09-04 20:15:00,70.9,-99.9,29.93,SSW,213,0.0,0.0,-999,-99.99,,,-99.99,,2013-09-05 03:15:00,
2013-09-04 20:20:00,70.5,-99.9,29.93,SSW,213,0.0,0.0,-999,-99.99,,,-99.99,,2013-09-05 03:20:00,
2013-09-04 20:25:00,70.1,-99.9,29.93,ENE,71,0.0,0.0,-999,-99.99,,,-99.99,,2013-09-05 03:25:00,
2013-09-04 20:30:00,70.3,-99.9,29.94,ENE,71,0.0,0.0,-999,-99.99,,,-99.99,,2013-09-05 03:30:00,
2013-09-04 20:35:00,69.9,-99.9,29.94,ENE,71,0.0,0.0,-999,-99.99,,,-99.99,,2013-09-05 03:35:00,
2013-09-04 20:40:00,69.8,-99.9,29.94,ENE,71,0.0,0.0,-999,-99.99,,,-99.99,,2013-09-05 03:40:00,
2013-09-04 20:50:00,69.6,-99.9,29.94,ENE,71,0.0,0.0,-999,-99.99,,,-99.99,,2013-09-05 03:50:00,
2013-09-04 20:55:00,69.3,-99.9,29.94,ENE,71,0.0,0.0,-999,-99.99,,,-99.99,,2013-09-05 03:55:00,
2013-09-04 21:00:00,69.3,-99.9,29.94,ENE,71,0.0,0.0,-999,-99.99,,,-99.99,,2013-09-05 04:00:00,
2013-09-04 21:05:00,69.2,-99.9,29.93,ENE,71,0.0,0.0,-999,-99.99,,,-99.99,,2013-09-05 04:05:00,
2013-09-04 21:10:00,69.0,-99.9,29.94,ENE,71,0.0,0.0,-999,-99.99,,,-99.99,,2013-09-05 04:10:00,
2013-09-04 21:15:00,68.6,-99.9,29.94,ENE,71,0.0,0.0,-999,-99.99,,,-99.99,,2013-09-05 04:15:00,
2013-09-04 21:20:00,68.7,-99.9,29.94,East,95,0.0,14.5,-999,-99.99,,,-99.99,,2013-09-05 04:20:00,
2013-09-04 21:25:00,68.5,-99.9,29.94,ESE,119,0.0,0.0,-999,-99.99,,,-99.99,,2013-09-05 04:25:00,
2013-09-04 21:30:00,68.4,-99.9,29.94,ESE,119,0.0,0.0,-999,-99.99,,,-99.99,,2013-09-05 04:30:00,
2013-09-04 21:35:00,68.5,-99.9,29.94,ESE,118,0.0,0.0,-999,-99.99,,,-99.99,,2013-09-05 04:35:00,
2013-09-04 21:40:00,68.3,-99.9,29.95,ESE,118,0.0,0.0,-999,-99.99,,,-99.99,,2013-09-05 04:40:00,
2013-09-04 21:45:00,68.1,-99.9,29.95,SE,135,7.6,19.0,-999,-99.99,,,-99.99,,2013-09-05 04:45:00,
2013-09-04 21:50:00,68.1,-99.9,29.95,East,87,0.0,0.0,-999,-99.99,,,-99.99,,2013-09-05 04:50:00,
2013-09-04 21:55:00,68.0,-99.9,29.95,SE,129,0.0,0.0,-999,-99.99,,,-99.99,,2013-09-05 04:55:00,
2013-09-04 22:00:00,67.7,-99.9,29.95,SE,129,0.0,0.0,-999,-99.99,,,-99.99,,2013-09-05 05:00:00,
2013-09-04 22:05:00,67.9,-99.9,29.95,SE,129,0.0,0.0,-999,-99.99,,,-99.99,,2013-09-05 05:05:00,
2013-09-04 22:10:00,67.7,-99.9,29.95,SE,129,0.0,0.0,-999,-99.99,,,-99.99,,2013-09-05 05:10:00,
2013-09-04 22:15:00,67.4,-99.9,29.95,SE,129,0.0,0.0,-999,-99.99,,,-99.99,,2013-09-05 05:15:00,
2013-09-04 22:20:00,67.2,-99.9,29.95,SE,129,0.0,0.0,-999,-99.99,,,-99.99,,2013-09-05 05:20:00,
2013-09-04 22:25:00,67.2,-99.9,29.95,SE,129,0.0,0.0,-999,-99.99,,,-99.99,,2013-09-05 05:25:00,
2013-09-04 22:30:00,67.1,-99.9,29.95,SE,129,0.0,7.6,-999,-99.99,,,-99.99,,2013-09-05 05:30:00,
2013-09-04 22:35:00,67.1,-99.9,29.95,SE,129,0.0,0.0,-999,-99.99,,,-99.99,,2013-09-05 05:35:00,
2013-09-04 22:40:00,67.0,-99.9,29.95,SE,129,0.0,0.0,-999,-99.99,,,-99.99,,2013-09-05 05:40:00,
2013-09-04 22:45:00,66.7,-99.9,29.94,SE,129,0.0,0.0,-999,-99.99,,,-99.99,,2013-09-05 05:45:00,
2013-09-04 22:50:00,66.8,-99.9,29.95,ESE,107,0.0,13.5,-999,-99.99,,,-99.99,,2013-09-05 05:50:00,
2013-09-04 22:55:00,66.3,-99.9,29.95,East,80,0.0,18.3,-999,-99.99,,,-99.99,,2013-09-05 05:55:00,
2013-09-04 23:05:00,66.1,-99.9,29.95,SE,125,0.0,13.2,-999,-99.99,,,-99.99,,2013-09-05 06:05:00,
2013-09-04 23:10:00,66.1,-99.9,29.95,ESE,110,0.0,0.0,-999,-99.99,,,-99.99,,2013-09-05 06:10:00,
2013-09-04 23:15:00,66.2,-99.9,29.94,SE,127,9.0,9.0,-999,-99.99,,,-99.99,,2013-09-05 06:15:00,
2013-09-04 23:20:00,66.1,-99.9,29.95,SE,127,0.0,0.0,-999,-99.99,,,-99.99,,2013-09-05 06:20:00,
2013-09-04 23:25:00,65.5,-99.9,29.94,SE,142,18.7,18.7,-999,-99.99,,,-99.99,,2013-09-05 06:25:00,
2013-09-04 23:30:00,65.7,-99.9,29.94,ESE,111,14.2,18.0,-999,-99.99,,,-99.99,,2013-09-05 06:30:00,
2013-09-04 23:35:00,65.6,-99.9,29.94,ESE,119,0.0,17.4,-999,-99.99,,,-99.99,,2013-09-05 06:35:00,
2013-09-04 23:40:00,65.4,-99.9,29.94,SE,127,0.0,0.0,-999,-99.99,,,-99.99,,2013-09-05 06:40:00,
2013-09-04 23:45:00,65.6,-99.9,29.94,ESE,105,0.0,0.0,-999,-99.99,,,-99.99,,2013-09-05 06:45:00,
2013-09-04 23:55:00,65.7,-99.9,29.94,East,95,0.0,0.0,-999,-99.99,,,-99.99,,2013-09-05 06:55:00,